Dewpoint
61 60 59 58 58 58 58 58 56 50 49 51 54 52 53 53 52 52 53 54 54 54 54 53 53 52 53 53 54 54 56 60 61 60 59 56 56 55
59 58 57 55 55 55 56 54 54 53 49 51 54 52 51 50 51 51 51 51 53 53 52 52 51 51 50 51 52 54 54 56 59 59 56 55 55 52
54 53 52 52 52 53 54 52 51 52 50 51 52 51 50 50 48 49 50 50 51 50 50 49 48 49 49 49 50 52 53 54 54 55 55 54 53 51
51 51 50 48 50 51 51 51 50 51 50 47 49 48 48 48 48 47 45 44 46 48 48 47 48 48 48 48 47 48 51 52 53 53 54 52 50 48
49 49 49 48 48 50 50 49 48 47 48 48 47 45 45 45 44 43 41 42 43 46 47 47 48 47 46 46 46 46 46 47 49 50 51 49 48 45
46 46 46 46 46 47 47 47 45 46 45 45 47 45 43 44 44 41 39 39 38 39 44 45 45 45 44 44 45 44 44 44 46 46 46 46 44 42
44 43 44 42 42 43 43 45 44 43 43 44 43 43 42 41 41 40 38 36 36 37 36 36 37 38 41 42 41 41 40 40 42 43 42 41 39 40
42 41 41 40 41 41 43 42 43 42 41 41 42 41 41 40 40 38 35 34 35 35 35 34 32 33 33 37 37 37 37 37 38 38 38 38 38 40
42 42 41 39 40 40 41 40 40 38 38 39 38 40 41 40 39 36 35 35 35 33 33 32 29 29 31 31 35 35 34 35 36 37 38 38 38 39
40 40 40 39 39 39 39 39 39 38 36 37 37 36 36 38 39 38 37 34 29 29 31 32 30 29 29 29 34 34 34 34 35 36 38 38 38 39
37 38 38 38 39 38 39 37 37 36 35 37 36 36 38 40 40 36 33 33 31 29 28 30 29 29 29 29 33 36 35 35 35 37 38 38 38 38
37 36 37 37 38 39 38 37 35 34 32 33 31 32 32 33 34 32 34 33 33 31 30 31 30 31 30 30 32 34 34 34 34 35 36 37 38 36
37 36 35 36 36 36 38 37 35 32 31 32 30 30 30 30 30 30 31 34 33 33 31 33 33 32 34 28 30 33 33 33 33 34 37 37 38 36
37 37 35 33 34 35 36 36 37 35 32 29 29 29 30 31 32 32 32 33 33 33 33 34 33 30 31 26 26 30 31 32 32 33 34 37 38 37
39 38 37 33 33 33 35 36 36 36 32 30 30 30 31 33 32 32 33 33 32 33 33 31 33 32 32 31 26 27 29 31 31 31 31 31 32 33
40 39 38 35 34 32 31 32 33 33 31 31 31 31 31 30 29 30 30 32 31 30 29 27 28 30 27 29 29 28 29 26 29 30 31 30 31 31
38 35 34 32 31 30 30 30 31 31 30 30 31 31 30 30 29 30 28 29 28 29 29 27 29 29 29 26 24 28 29 28 29 29 29 29 30 30
35 33 33 32 30 30 29 29 29 29 30 31 31 31 29 29 28 29 27 26 25 27 27 29 27 26 26 28 30 27 27 27 28 29 28 27 28 30
35 33 33 32 31 30 30 31 31 31 31 32 31 30 29 30 29 27 27 25 25 27 28 28 27 25 23 22 27 30 26 27 29 28 28 28 27 29
36 35 34 34 33 32 31 32 33 33 31 31 30 29 29 28 28 27 26 24 24 26 27 28 26 26 25 26 26 26 30 29 28 27 28 28 28 28
36 35 35 34 33 33 32 33 33 34 33 31 30 29 29 29 28 27 27 28 27 24 25 26 28 30 29 27 24 24 26 30 30 28 28 26 26 26
34 35 34 34 34 33 33 33 33 33 33 32 31 31 30 30 28 27 27 27 27 27 26 26 27 29 27 25 24 24 25 27 29 29 29 28 26 23
33 33 34 34 34 34 33 33 32 33 33 32 32 32 30 29 29 28 27 27 26 26 26 26 28 29 27 26 25 25 25 25 26 25 27 29 29 29
Lifted_Index
-0 0 1 2 3 4 4 4 5 5 5 4 4 4 5 5 4 3 3 3 3 3 3 3 3 3 4 5 6 6 4 2 1 1 1 2 3 4
1 1 2 3 4 5 5 5 5 5 5 5 4 5 5 5 4 4 4 4 4 4 4 3 4 4 4 5 6 6 5 3 2 2 2 2 3 4
2 3 4 5 6 6 6 6 6 6 6 6 5 6 6 6 5 5 4 4 4 5 5 4 4 4 4 5 6 7 6 5 4 4 4 4 4 5
4 5 6 7 7 7 7 7 7 7 7 7 6 7 7 6 6 5 5 5 5 5 5 5 5 5 5 6 7 8 7 7 6 6 5 5 5 5
6 6 7 7 7 7 8 8 7 7 8 7 7 7 7 7 6 6 6 5 5 6 6 6 6 6 6 7 8 8 8 8 8 7 7 6 6 7
7 7 7 7 7 8 8 8 8 8 8 8 8 8 8 8 7 7 6 6 5 6 6 6 6 7 7 8 9 9 9 8 8 8 8 7 7 8
7 7 7 8 8 8 8 8 8 8 8 8 8 9 9 9 8 7 7 6 5 6 6 6 6 7 7 8 9 9 9 9 9 9 8 8 8 9
7 7 7 8 8 8 8 8 8 8 9 9 9 9 9 10 9 8 7 6 6 6 6 6 6 7 7 8 9 10 10 10 10 9 9 9 10 10
7 7 7 7 8 8 9 9 9 9 10 10 10 10 10 11 10 9 8 7 7 7 6 6 6 7 8 9 10 10 11 11 11 11 11 11 12 12
7 7 8 8 8 9 9 9 9 9 10 11 11 11 11 12 11 11 10 9 8 8 7 7 7 7 8 9 10 11 12 13 13 14 13 13 13 13
8 8 8 9 9 9 9 8 8 9 10 11 12 12 12 12 12 11 10 9 8 8 8 8 8 8 9 10 11 12 13 14 15 15 15 15 14 14
8 8 9 9 9 9 9 8 8 9 10 11 11 12 12 12 12 12 11 10 9 9 9 9 9 9 9 10 12 13 14 16 16 16 16 15 15 15
8 8 9 9 9 10 9 9 9 10 10 11 11 12 12 12 13 13 12 11 10 10 10 10 10 10 11 11 13 15 16 16 17 16 16 15 15 15
7 8 8 9 9 10 10 10 10 11 11 11 11 11 12 13 14 15 15 13 12 12 11 11 11 11 12 13 14 15 16 17 16 16 15 15 15 15
7 7 8 8 9 9 10 10 11 11 11 11 11 13 14 16 16 17 17 16 15 14 14 13 13 13 13 14 15 15 16 16 16 15 15 15 15 15
6 7 7 8 9 9 10 10 11 11 12 12 13 14 16 17 17 18 18 17 17 16 16 16 15 15 15 16 16 15 15 15 15 15 15 15 15 15
6 7 7 8 8 9 9 10 11 11 13 14 15 15 17 17 17 18 18 17 17 17 17 17 17 17 17 17 16 16 15 15 15 14 14 14 14 14
6 6 7 7 8 8 8 9 10 11 13 15 15 15 16 17 17 18 18 18 17 17 17 18 17 17 17 16 16 16 15 15 14 14 13 12 12 13
6 6 7 7 8 8 8 8 9 11 13 14 15 16 17 17 17 17 18 17 17 17 17 17 17 16 15 15 15 16 15 15 14 13 11 11 11 13
7 7 7 8 8 8 9 9 10 11 12 13 14 15 17 17 17 17 17 17 17 17 17 17 17 16 15 14 14 15 16 15 14 12 10 10 12 13
7 7 8 8 9 9 10 10 10 11 11 12 13 15 16 17 17 17 17 17 17 17 17 17 17 17 17 15 14 14 15 15 15 13 12 11 12 12
8 8 8 9 9 10 10 11 11 11 11 11 12 13 15 16 16 17 17 17 16 16 17 17 18 18 17 15 14 13 14 14 14 14 14 13 13 12
8 8 8 9 9 10 10 11 11 11 11 11 11 12 14 15 16 16 16 16 16 16 17 17 17 17 16 15 14 13 13 13 13 13 14 15 14 14